Regional Weather Roundup
Issued by NWS

Home | Current Version | Previous Version | Text Only | Print | Product List | Glossary Off
Versions: 1 2 3 4 5 6 7 8 9 10 11 12 13 14 15 16 17 18 19 20 21 22 23 24 25 26 27 28 29 30 31 32 33 34 35 36 37 38 39 40 41 42 43 44 45 46 47 48 49 50

000
ASUS43 KMKX 290659
RWRWI

WISCONSIN REGIONAL WEATHER ROUNDUP
NATIONAL WEATHER SERVICE MILWAUKEE/SULLIVAN WI
200 AM CDT SUN MAR 29 2015

NOTE: "FAIR" INDICATES FEW OR NO CLOUDS BELOW 12,000 FEET WITH NO
SIGNIFICANT WEATHER AND/OR OBSTRUCTIONS TO VISIBILITY.

WIZ001-002-006>008-014>016-023>028-290800-
NORTHWEST WISCONSIN

CITY           SKY/WX    TMP DP  RH WIND       PRES   REMARKS
SUPERIOR ARPT  CLOUDY    36  19  49 SW9G18    29.81F WCI  29
ASHLAND        CLOUDY    35  14  42 S13G21    29.84F WCI  26
HAYWARD        CLOUDY    34  14  43 S18G29    29.87F WCI  23
SIREN          MOCLDY    35  17  46 S18G25    29.85F WCI  25
CUMBERLAND     MOCLDY    32  18  55 S13       29.89F WCI  22
RICE LAKE      MOCLDY    33  16  48 S13G18    29.93S WCI  24
CHETEK         MOCLDY    32  16  51 SE10G16   29.93F WCI  24
LADYSMITH      MOCLDY    33  17  51 S10G20    29.95F WCI  25
EAU CLAIRE     NOT AVBL
MENOMONIE      PTCLDY    36  14  41 S13       29.95F WCI  27
NEW RICHMOND   PTCLDY    33  18  53 S14       29.90F WCI  24
OSCEOLA        PTCLDY    36  19  50 S16G22    29.91F WCI  26
$$

WIZ003>005-009-010-017-018-290800-
NORTH CENTRAL WISCONSIN

CITY           SKY/WX    TMP DP  RH WIND       PRES   REMARKS
MANITOWISH WTR MOCLDY    30  13  49 S13G20    29.91F WCI  20
ARBOR VITAE    MOCLDY    32  15  50 S14G23    29.92F WCI  22
WOODRUFF       MOCLDY    32  15  50 S14G23    29.92F WCI  22
RHINELANDER    MOCLDY    30  13  49 S16G24    29.95F WCI  19
EAGLE RIVER    MOCLDY    30  11  45 S7        29.94F WCI  23
LAND O LAKES   MOCLDY    31  12  46 S9G18     29.92F WCI  22
PHILLIPS       MOCLDY    32  14  48 S15G24    29.92F WCI  21
TOMAHAWK       MOCLDY    30  15  53 S3        29.97F
MEDFORD        CLOUDY    31  17  56 S15G21    29.96F WCI  20
MERRILL        MOCLDY    31  15  51 S9G16     29.99F WCI  23
$$

WIZ029-030-035-036-043>047-290800-
CENTRAL WISCONSIN

CITY           SKY/WX    TMP DP  RH WIND       PRES   REMARKS
WAUSAU         MOCLDY    31  15  52 S10G20    29.99F WCI  22
MOSINEE        MOCLDY    32  16  51 S16       30.02F WCI  21
MARSHFIELD     CLOUDY    32  14  47 S15       30.00F WCI  22
STEVENS POINT  MOCLDY    29  13  52 S12G17    30.05F WCI  19
WAUPACA        MOCLDY    32  16  50 S7        30.09F WCI  26
WAUTOMA        NOT AVBL
WISC RAPIDS    MOCLDY    32  11  41 S12       30.05F WCI  23
CAMP DOUGLAS   NOT AVBL
$$

WIZ011>013-019>022-031-037>040-048>050-290800-
NORTHEAST WISCONSIN

CITY           SKY/WX    TMP DP  RH WIND       PRES   REMARKS
ANTIGO         MOCLDY    28  16  59 S13       30.01F WCI  18
SHAWANO        PTCLDY    33  17  51 S7        30.08F WCI  26
OCONTO         CLEAR     28  19  66 S6        30.10F WCI  22
STURGEON BAY   FAIR      27  18  69 S10       30.12F WCI  17
GREEN BAY      PTCLDY    28  20  71 S9        30.10F WCI  19
MANITOWOC      NOT AVBL
APPLETON       PTCLDY    30  16  55 S10       30.10F WCI  21
CLINTONVILLE   MOCLDY    32  16  51 S12       30.08F WCI  23
OSHKOSH        PTCLDY    28  18  66 S13       30.11F WCI  17
$$

WIZ032>034-041-042-053>061-290800-
SOUTHWEST WISCONSIN

CITY           SKY/WX    TMP DP  RH WIND       PRES   REMARKS
LA CROSSE      MOCLDY    37  17  44 S20G29    30.01F WCI  27
SPARTA         CLOUDY    34  12  40 S10G17    30.05F WCI  26
VIROQUA        MOCLDY    31  16  52 S14       30.03F WCI  21
BOSCOBEL       MOCLDY    34  15  46 S7        30.09F WCI  28
PRAIRIE DU CHI MOCLDY    35  14  43 SE8G20    30.08F WCI  28
PLATTEVILLE    MOCLDY    32  19  58 SE13      30.11F WCI  22
$$

WIZ056-057-062-063-064-067-068-290800-
SOUTH CENTRAL WISCONSIN

CITY           SKY/WX    TMP DP  RH WIND       PRES   REMARKS
REEDSBURG      PTCLDY    32  14  48 S10       30.09F WCI  23
BARABOO/DELLS  PTCLDY    30  14  51 S10       30.09F WCI  21
LONE ROCK      NOT AVBL
MINERAL POINT  PTCLDY    30  18  59 S10       30.10F WCI  21
MADISON        PTCLDY    32  14  47 S9        30.13F WCI  24
MIDDLETON      PTCLDY    32  14  47 S9        30.13F WCI  24
WATERTOWN      PTCLDY    26  16  65 S3        30.15F
MONROE         PTCLDY    30  19  64 S14       30.14F WCI  20
JANESVILLE     MOCLDY    32  14  47 S10       30.17F WCI  24
$$

WIZ051-052-058>065-066-070>072-290800-
SOUTHEAST WISCONSIN

CITY           SKY/WX    TMP DP  RH WIND       PRES   REMARKS
MILWAUKEE      CLEAR     27  10  49 S12       30.19F WCI  17
WAUKESHA       CLEAR     27  12  54 S7        30.19F WCI  19
MILWAUKEE/TIMM CLEAR     28  10  47 S8        30.20F WCI  20
RACINE         CLEAR     28  11  48 S9        30.22F WCI  19
BURLINGTON     CLEAR     25  13  58 S8        30.19F WCI  17
KENOSHA        CLEAR     26  13  57 S10       30.21F WCI  16
FOND DU LAC    PTCLDY    28  17  63 S10       30.12F WCI  19
SHEBOYGAN      CLEAR     25  15  66 S10       30.16F WCI  15
WEST BEND      CLEAR     27  12  54 S6        30.16F WCI  20
JUNEAU         PTCLDY    26  17  68 SE14      30.15F WCI  14
$$

LSZ147-162-290800-
LAKE SUPERIOR

STATION/POSITION TIME  TEMP    WIND        PRES    WAVE
                       AIR SEA DIR/SP/G            HT/PER
                 (UTC) (F)     (DEG/KT/KT) (MB)    (FT/S)
DEVILS ISLAND    0600   35     190/ 12/ 17 1011.7F
PORT WING        0600   38     180/ 15/ 25 1010.5F
SAXON HARBOR     0600   36     200/ 12/ 20 1011.9F
$$

LMZ867-665-643>646-290800-
LAKE MICHIGAN

STATION/POSITION TIME  TEMP    WIND        PRES    WAVE
                       AIR SEA DIR/SP/G            HT/PER
                 (UTC) (F)     (DEG/KT/KT) (MB)    (FT/S)
NORTHPORT PIER   0600   30     160/  4/ 11 1020.0F
SISTER BAY       0617   28     190/ 14/ 17   N/A
KEWAUNEE LAKESHO 0500   28     200/ 12/ 15 1021.4F
SHEBOYGAN LAKESH 0600   29     200/ 18/ 20 1023.4F
PORT WASHINGTON  0600   28     210/  9/ 12 1023.7F
MILWAUKEE LAKESH 0600   29     200/  8/ 10   N/A
KENOSHA   LAKESH 0600   29     190/  8/ 11 1023.7F
$$

TC  - TEMPERATURE IN CELSIUS
VSB - VISIBILITY IN STATUTE MILES
WCI - WIND CHILL INDEX
HX  - HEAT INDEX




USA.gov is the U.S. government's official web portal to all federal, state and local government web resources and services.